period_start,C,m1,H,J0,J1,J2,J3,J4,J5,JA,JB,JC,JD,JJ,JK,JN,#
2013-08-17 00:00:57,-0.01,0.66,0.00,25.95,30.10,31.65,6.02,28.79,1012.22,2038.84,3167.96,3159.98,3392.97,350.09,319.90,27.37,0000 0000 0000 0000 000000
2013-08-17 00:01:57,-0.02,0.66,0.00,25.97,30.10,31.72,5.85,28.75,1012.22,2038.85,3167.92,3159.98,3392.94,350.44,319.76,27.38,0000 0000 0000 0000 000000
2013-08-17 00:02:57,0.01,0.66,0.00,25.92,30.10,31.77,6.00,28.71,1012.22,2038.88,3167.91,3159.99,3392.94,350.96,320.11,27.39,0000 0000 0000 0000 000000
2013-08-17 00:03:57,0.02,0.66,0.00,25.93,30.10,31.79,5.76,28.67,1012.23,2038.89,3167.93,3159.98,3392.90,349.43,319.15,27.39,0000 0000 0000 0000 000000
2013-08-17 00:04:58,0.02,0.66,0.00,25.93,30.10,31.79,5.92,28.63,1012.23,2038.90,3167.91,3159.98,3392.93,349.71,319.14,27.40,0000 0000 0000 0000 000000
2013-08-17 00:05:58,-0.00,0.66,0.00,25.94,30.10,31.80,5.89,28.71,1012.23,2038.89,3167.70,3159.96,3392.91,350.22,319.60,27.40,0000 0000 0000 0000 000000
2013-08-17 00:06:58,0.03,0.66,0.00,25.99,30.10,31.82,5.92,28.50,1012.24,2038.89,3167.65,3159.96,3392.84,350.59,319.89,27.41,0000 0000 0000 0000 000000
2013-08-17 00:07:58,0.02,0.66,0.00,25.99,30.10,31.75,5.88,28.58,1012.25,2038.86,3167.40,3159.87,3392.67,349.27,318.29,27.42,0000 0000 0000 0000 000000
2013-08-17 00:08:59,0.04,0.66,0.00,25.95,30.10,31.69,5.88,28.63,1012.24,2038.84,3167.34,3159.89,3392.56,349.62,318.86,27.42,0000 0000 0000 0000 000000
2013-08-17 00:09:59,0.00,0.66,0.00,25.94,30.10,31.67,6.00,28.67,1012.24,2038.85,3167.37,3159.83,3392.45,350.69,319.77,27.43,0000 0000 0000 0000 000000
2013-08-17 00:10:59,0.04,0.66,0.00,25.94,30.10,31.61,5.88,28.75,1012.24,2038.83,3167.36,3159.88,3392.45,349.95,319.36,27.43,0000 0000 0000 0000 000000
2013-08-17 00:11:59,-0.02,0.66,0.00,25.97,30.10,31.62,6.00,28.71,1012.26,2038.83,3167.34,3159.84,3392.43,350.93,320.22,27.44,0000 0000 0000 0000 000000
2013-08-17 00:12:59,0.02,0.66,0.00,25.99,30.10,31.63,6.02,28.83,1012.24,2038.80,3167.28,3159.75,3392.31,351.00,320.26,27.45,0000 0000 0000 0000 000000
2013-08-17 00:14:00,0.01,0.66,0.00,25.97,30.10,31.63,5.97,28.79,1012.28,2038.80,3167.47,3159.65,3392.22,350.16,319.52,27.45,0000 0000 0000 0000 000000
2013-08-17 00:15:00,0.00,0.66,0.00,25.95,30.10,31.73,5.98,28.92,1012.27,2038.78,3167.53,3159.65,3392.13,349.81,319.36,27.46,0000 0000 0000 0000 000000
2013-08-17 00:16:00,-0.03,0.66,0.00,25.95,30.10,31.84,6.13,28.79,1012.26,2038.77,3167.59,3159.61,3392.12,351.10,320.11,27.46,0000 0000 0000 0000 000000
2013-08-17 00:17:00,0.01,0.66,0.00,25.98,30.10,31.81,5.92,28.75,1012.25,2038.81,3167.78,3159.69,3392.20,349.88,319.26,27.47,0000 0000 0000 0000 000000
2013-08-17 00:18:01,-0.04,0.66,0.00,26.00,30.10,31.73,5.82,28.79,1012.23,2038.75,3167.84,3159.69,3392.19,349.31,318.70,27.47,0000 0000 0000 0000 000000
2013-08-17 00:19:01,-0.05,0.66,0.00,26.00,30.10,31.67,5.90,28.67,1012.25,2038.64,3167.80,3159.62,3392.11,350.54,320.13,27.48,0000 0000 0000 0000 000000
2013-08-17 00:20:01,-0.04,0.66,0.00,26.00,30.10,31.72,5.93,28.79,1012.28,2038.67,3167.65,3159.48,3392.08,350.00,319.36,27.49,0000 0000 0000 0000 000000
2013-08-17 00:21:01,0.10,0.66,0.00,25.96,30.10,31.74,5.94,28.92,1012.26,2038.69,3167.57,3159.40,3392.06,350.10,319.48,27.49,0000 0000 0000 0000 000000
2013-08-17 00:22:02,0.03,0.66,0.00,25.92,30.10,31.77,5.97,28.79,1012.28,2038.47,3167.37,3159.25,3392.02,351.06,320.47,27.50,0000 0000 0000 0000 000000
2013-08-17 00:23:02,-0.11,0.66,0.00,25.93,30.10,31.89,5.81,28.75,1012.27,2038.30,3167.17,3159.11,3392.00,349.17,318.32,27.50,0000 0000 0000 0000 000000
2013-08-17 00:24:02,-0.06,0.66,0.00,25.96,30.10,31.91,6.10,28.67,1012.28,2038.27,3167.12,3159.11,3392.01,350.23,319.61,27.51,0000 0000 0000 0000 000000
2013-08-17 00:25:02,-0.01,0.66,0.00,25.96,30.10,31.79,5.95,28.75,1012.29,2038.21,3167.07,3159.09,3392.00,350.24,319.62,27.52,0000 0000 0000 0000 000000
2013-08-17 00:26:02,-0.04,0.66,0.00,25.95,30.10,31.71,6.04,28.79,1012.29,2038.16,3167.02,3159.07,3392.00,350.44,319.81,27.52,0000 0000 0000 0000 000000
2013-08-17 00:27:03,-0.02,0.66,0.00,25.97,30.10,31.68,5.83,28.67,1012.34,2038.12,3167.01,3159.03,3392.00,350.15,319.82,27.53,0000 0000 0000 0000 000000
2013-08-17 00:28:03,-0.02,0.66,0.00,25.96,30.10,31.69,5.86,28.54,1012.28,2038.14,3167.01,3159.01,3392.00,350.37,319.98,27.53,0000 0000 0000 0000 000000
2013-08-17 00:29:03,0.02,0.66,0.00,25.96,30.10,31.70,5.98,28.63,1012.33,2038.24,3167.00,3159.01,3392.00,349.91,319.33,27.54,0000 0000 0000 0000 000000
2013-08-17 00:30:03,0.11,0.66,0.00,25.94,30.11,31.77,5.75,28.83,1012.36,2038.44,3167.01,3159.01,3392.00,350.25,319.66,27.54,0000 0000 0000 0000 000000
2013-08-17 00:31:03,0.16,0.66,0.00,25.95,30.11,31.73,5.90,28.54,1012.33,2038.58,3167.01,3159.02,3392.01,350.36,319.59,27.55,0000 0000 0000 0000 000000
2013-08-17 00:32:04,0.05,0.66,0.00,25.99,30.11,31.82,5.98,28.54,1012.47,2038.45,3167.01,3159.02,3392.00,350.79,320.14,27.56,0000 0000 0000 0000 000000
2013-08-17 00:33:04,-0.10,0.66,0.00,25.96,30.11,31.83,5.95,28.54,1012.45,2038.36,3167.00,3159.00,3392.00,349.83,318.88,27.56,0000 0000 0000 0000 000000
2013-08-17 00:34:04,-0.04,0.66,0.00,25.91,30.11,31.73,5.82,28.71,1012.42,2038.23,3167.00,3159.00,3392.00,349.95,319.36,27.57,0000 0000 0000 0000 000000
2013-08-17 00:35:04,-0.08,0.66,0.00,25.91,30.11,31.72,5.88,28.71,1012.43,2038.21,3167.00,3159.01,3392.00,349.93,319.43,27.57,0000 0000 0000 0000 000000
2013-08-17 00:36:05,0.00,0.66,0.00,25.91,30.12,31.70,5.99,28.54,1012.54,2038.30,3167.00,3159.00,3392.00,350.11,319.84,27.58,0000 0000 0000 0000 000000
2013-08-17 00:37:05,0.05,0.66,0.00,25.92,30.12,31.69,5.98,28.67,1012.52,2038.34,3167.00,3159.00,3391.99,350.16,319.65,27.59,0000 0000 0000 0000 000000
2013-08-17 00:38:05,0.01,0.66,0.00,25.94,30.12,31.74,5.85,28.29,1012.58,2038.24,3166.99,3159.00,3391.94,350.48,319.94,27.59,0000 0000 0000 0000 000000
2013-08-17 00:39:06,-0.05,0.66,0.00,25.97,30.12,31.87,5.99,28.67,1012.62,2038.22,3166.95,3159.00,3391.96,350.51,319.61,27.60,0000 0000 0000 0000 000000
2013-08-17 00:40:06,0.02,0.66,0.00,25.98,30.12,31.90,5.84,28.88,1012.57,2038.29,3166.97,3159.00,3391.98,349.27,318.79,27.60,0000 0000 0000 0000 000000
2013-08-17 00:41:06,0.01,0.66,0.00,25.94,30.12,31.84,5.75,28.75,1012.56,2038.23,3166.88,3159.00,3391.97,349.73,318.77,27.61,0000 0000 0000 0000 000000
2013-08-17 00:42:06,-0.02,0.66,0.00,26.01,30.12,31.75,5.86,28.71,1012.51,2038.14,3166.64,3158.98,3391.85,349.37,318.97,27.62,0000 0000 0000 0000 000000
2013-08-17 00:43:07,0.01,0.66,0.00,25.99,30.12,31.73,5.89,28.63,1012.56,2038.17,3166.41,3158.99,3391.79,350.43,319.65,27.62,0000 0000 0000 0000 000000
2013-08-17 00:44:07,0.04,0.66,0.00,25.96,30.12,31.72,5.93,28.58,1012.55,2038.19,3166.32,3158.98,3391.77,349.97,319.57,27.63,0000 0000 0000 0000 000000
2013-08-17 00:45:07,0.01,0.66,0.00,25.96,30.12,31.65,5.99,28.50,1012.54,2038.15,3166.38,3158.98,3391.72,351.43,321.09,27.63,0000 0000 0000 0000 000000
2013-08-17 00:46:07,-0.01,0.66,0.00,25.97,30.12,31.70,5.83,28.63,1012.58,2038.18,3166.25,3158.96,3391.62,349.37,318.82,27.64,0000 0000 0000 0000 000000
2013-08-17 00:47:08,0.05,0.66,0.00,25.99,30.12,31.80,5.83,28.46,1012.59,2038.15,3166.12,3158.97,3391.44,349.52,318.81,27.64,0000 0000 0000 0000 000000
2013-08-17 00:48:08,0.03,0.66,0.00,26.01,30.12,31.80,5.93,28.63,1012.59,2038.19,3166.10,3158.93,3391.29,350.25,319.79,27.65,0000 0000 0000 0000 000000
2013-08-17 00:49:08,0.04,0.66,0.00,26.00,30.12,31.81,5.85,28.54,1012.59,2038.10,3166.05,3158.82,3391.13,349.46,318.94,27.66,0000 0000 0000 0000 000000
2013-08-17 00:50:09,0.00,0.66,0.00,26.00,30.12,31.83,5.89,28.75,1012.57,2038.09,3166.03,3158.70,3391.07,349.08,318.61,27.66,0000 0000 0000 0000 000000
2013-08-17 00:51:09,0.01,0.66,0.00,25.99,30.12,31.92,5.98,28.63,1012.49,2038.08,3166.04,3158.59,3391.03,350.36,319.58,27.67,0000 0000 0000 0000 000000
2013-08-17 00:52:09,0.00,0.66,0.00,26.01,30.12,31.92,6.08,28.67,1012.51,2038.07,3166.01,3158.56,3391.03,350.66,320.01,27.67,0000 0000 0000 0000 000000
2013-08-17 00:53:09,0.03,0.66,0.00,26.02,30.12,31.78,5.68,28.58,1012.49,2038.12,3166.00,3158.42,3391.03,349.62,319.06,27.68,0000 0000 0000 0000 000000
2013-08-17 00:54:10,0.05,0.66,0.00,26.02,30.12,31.81,5.79,28.79,1012.44,2038.14,3166.00,3158.34,3391.02,349.25,318.71,27.69,0000 0000 0000 0000 000000
2013-08-17 00:55:10,0.01,0.66,0.00,26.00,30.12,31.77,6.07,28.88,1012.37,2038.13,3166.00,3158.19,3391.00,349.78,319.18,27.69,0000 0000 0000 0000 000000
2013-08-17 00:56:10,0.02,0.66,0.00,25.96,30.12,31.84,5.99,28.75,1012.37,2038.14,3166.00,3158.15,3391.00,350.44,320.23,27.70,0000 0000 0000 0000 000000
2013-08-17 00:57:10,0.02,0.66,0.00,25.98,30.12,31.92,5.97,28.79,1012.35,2038.15,3166.00,3158.08,3391.00,350.48,319.43,27.70,0000 0000 0000 0000 000000
2013-08-17 00:58:11,0.02,0.66,0.00,26.00,30.12,31.84,5.77,28.67,1012.28,2038.10,3165.98,3158.03,3391.00,348.71,318.43,27.71,0000 0000 0000 0000 000000
2013-08-17 00:59:11,-0.01,0.66,0.00,26.00,30.12,31.93,5.88,28.67,1012.27,2038.11,3165.95,3158.02,3391.00,350.38,319.69,27.71,0000 0000 0000 0000 000000
2013-08-17 01:00:11,0.01,0.66,0.00,25.99,30.12,31.83,5.92,28.67,1012.27,2038.11,3165.91,3158.00,3391.00,350.05,319.48,27.72,0000 0000 0000 0000 000000
2013-08-17 01:01:12,0.03,0.66,0.00,26.00,30.12,31.82,5.71,28.67,1012.27,2038.09,3165.90,3158.00,3391.00,349.77,319.72,27.73,0000 0000 0000 0000 000000
2013-08-17 01:02:12,-0.01,0.66,0.00,26.03,30.12,31.93,6.01,28.63,1012.34,2038.07,3165.91,3158.00,3390.99,351.39,320.60,27.73,0000 0000 0000 0000 000000
2013-08-17 01:03:12,-0.02,0.66,0.00,26.02,30.12,31.87,5.81,28.46,1012.35,2038.07,3165.86,3158.00,3390.99,350.31,319.63,27.74,0000 0000 0000 0000 000000
2013-08-17 01:04:13,0.01,0.66,0.00,26.02,30.12,31.80,5.95,28.75,1012.32,2038.04,3165.70,3158.00,3390.96,350.27,319.20,27.74,0000 0000 0000 0000 000000
2013-08-17 01:05:13,0.02,0.66,0.00,26.02,30.12,31.75,5.86,28.63,1012.27,2038.07,3165.47,3158.00,3390.94,349.68,319.30,27.75,0000 0000 0000 0000 000000
2013-08-17 01:06:13,0.03,0.66,0.00,25.98,30.13,31.76,5.91,28.71,1012.28,2038.08,3165.46,3158.00,3390.95,350.48,319.92,27.76,0000 0000 0000 0000 000000
2013-08-17 01:07:13,0.02,0.66,0.00,25.97,30.13,31.81,5.98,28.50,1012.31,2038.07,3165.38,3158.00,3390.96,351.57,321.07,27.76,0000 0000 0000 0000 000000
2013-08-17 01:08:14,-0.01,0.66,0.00,25.99,30.13,31.75,5.91,28.67,1012.29,2038.04,3165.32,3158.00,3390.92,350.47,319.43,27.77,0000 0000 0000 0000 000000
2013-08-17 01:09:14,0.01,0.66,0.00,25.99,30.14,31.86,5.96,28.79,1012.34,2038.06,3165.18,3158.00,3390.78,350.26,319.62,27.77,0000 0000 0000 0000 000000
2013-08-17 01:10:14,0.04,0.66,0.00,25.98,30.14,31.88,5.92,28.75,1012.33,2038.02,3165.07,3157.98,3390.45,350.04,319.42,27.78,0000 0000 0000 0000 000000
2013-08-17 01:11:15,0.05,0.66,0.00,26.00,30.14,31.84,5.83,28.75,1012.34,2038.03,3165.02,3157.93,3390.23,351.07,320.24,27.79,0000 0000 0000 0000 000000
2013-08-17 01:12:15,0.04,0.66,0.00,26.02,30.15,31.85,5.88,28.79,1012.41,2038.03,3165.00,3157.85,3390.12,350.07,319.43,27.79,0000 0000 0000 0000 000000
2013-08-17 01:13:15,0.04,0.66,0.00,26.00,30.15,31.85,5.84,28.67,1012.48,2038.04,3165.00,3157.62,3390.06,349.28,318.75,27.80,0000 0000 0000 0000 000000
2013-08-17 01:14:16,0.04,0.66,0.00,25.99,30.15,31.85,5.95,28.67,1012.43,2038.02,3165.00,3157.48,3390.03,350.21,319.86,27.80,0000 0000 0000 0000 000000
2013-08-17 01:15:16,0.03,0.66,0.00,26.02,30.15,31.88,5.92,28.67,1012.45,2038.01,3165.00,3157.30,3390.02,350.91,320.13,27.81,0000 0000 0000 0000 000000
2013-08-17 01:16:16,0.02,0.66,0.00,26.03,30.15,31.82,5.88,28.58,1012.49,2038.00,3164.98,3157.28,3390.00,349.96,319.35,27.81,0000 0000 0000 0000 000000
2013-08-17 01:17:17,0.00,0.66,0.00,26.06,30.15,31.76,6.01,28.88,1012.48,2038.00,3164.97,3157.21,3390.01,350.78,319.76,27.82,0000 0000 0000 0000 000000
2013-08-17 01:18:17,0.02,0.66,0.00,26.04,30.15,31.75,5.83,28.92,1012.50,2038.00,3164.96,3157.12,3390.00,349.45,318.87,27.83,0000 0000 0000 0000 000000
2013-08-17 01:19:17,0.03,0.66,0.00,26.07,30.15,31.76,5.84,28.92,1012.49,2038.04,3164.92,3157.10,3390.00,350.32,319.57,27.83,0000 0000 0000 0000 000000
2013-08-17 01:20:17,0.02,0.66,0.00,26.06,30.15,31.75,5.95,28.88,1012.52,2038.01,3164.75,3157.04,3390.00,351.00,319.33,27.84,0000 0000 0000 0000 000000
2013-08-17 01:21:18,0.02,0.66,0.00,26.05,30.15,31.73,5.84,28.71,1012.51,2038.00,3164.47,3157.02,3390.00,348.89,318.36,27.84,0000 0000 0000 0000 000000
2013-08-17 01:22:18,0.02,0.66,0.00,26.04,30.15,31.71,5.98,28.67,1012.53,2038.01,3164.50,3157.00,3390.00,349.65,319.07,27.85,0000 0000 0000 0000 000000
2013-08-17 01:23:18,0.01,0.66,0.00,26.01,30.15,31.73,5.84,28.83,1012.61,2038.00,3164.36,3157.00,3390.00,349.34,318.91,27.86,0000 0000 0000 0000 000000
2013-08-17 01:24:18,0.02,0.66,0.00,26.05,30.15,31.77,5.85,28.54,1012.59,2038.00,3164.20,3157.00,3389.98,350.50,319.84,27.86,0000 0000 0000 0000 000000
2013-08-17 01:25:19,0.01,0.66,0.00,26.05,30.15,31.75,5.95,28.58,1012.53,2038.01,3164.12,3157.00,3389.96,350.23,319.13,27.87,0000 0000 0000 0000 000000
2013-08-17 01:26:19,0.02,0.66,0.00,26.08,30.15,31.75,5.92,28.38,1012.41,2038.01,3164.05,3157.00,3389.88,350.92,320.14,27.87,0000 0000 0000 0000 000000
2013-08-17 01:27:19,0.01,0.66,0.00,26.08,30.15,31.75,5.83,28.58,1012.33,2038.00,3164.03,3157.00,3389.80,349.83,319.12,27.88,0000 0000 0000 0000 000000
2013-08-17 01:28:20,0.01,0.66,0.00,26.06,30.15,31.79,5.88,28.75,1012.30,2038.00,3164.03,3156.99,3389.68,350.22,319.49,27.88,0000 0000 0000 0000 000000
2013-08-17 01:29:20,0.02,0.66,0.00,26.04,30.15,31.76,5.75,28.75,1012.27,2038.00,3164.02,3156.99,3389.42,349.01,318.23,27.89,0000 0000 0000 0000 000000
2013-08-17 01:30:20,0.03,0.66,0.00,26.01,30.15,31.74,5.84,28.75,1012.30,2038.00,3164.00,3156.98,3389.21,349.70,319.07,27.90,0000 0000 0000 0000 000000
2013-08-17 01:31:20,0.02,0.66,0.00,26.07,30.15,31.70,5.96,28.71,1012.32,2038.00,3164.00,3156.96,3389.09,350.68,319.71,27.90,0000 0000 0000 0000 000000
2013-08-17 01:32:21,0.01,0.66,0.00,26.08,30.15,31.72,5.73,28.46,1012.28,2038.00,3164.00,3156.96,3389.07,349.45,318.73,27.91,0000 0000 0000 0000 000000
2013-08-17 01:33:21,0.00,0.66,0.00,26.08,30.15,31.72,5.92,28.92,1012.26,2038.00,3164.00,3156.98,3389.04,349.21,318.53,27.91,0000 0000 0000 0000 000000
2013-08-17 01:34:21,0.00,0.66,0.00,26.06,30.15,31.88,5.87,28.79,1012.26,2038.00,3164.00,3156.94,3389.02,349.49,318.82,27.92,0000 0000 0000 0000 000000
2013-08-17 01:35:22,0.01,0.66,0.00,26.04,30.15,31.86,5.85,28.63,1012.27,2038.00,3164.00,3156.91,3389.02,349.82,318.71,27.93,0000 0000 0000 0000 000000
2013-08-17 01:36:22,-0.00,0.66,0.00,26.06,30.15,31.90,5.91,28.79,1012.25,2038.00,3163.99,3156.91,3389.03,351.09,319.63,27.93,0000 0000 0000 0000 000000
2013-08-17 01:37:22,0.00,0.66,0.00,26.06,30.15,31.88,5.73,28.63,1012.25,2038.00,3163.99,3156.81,3389.00,349.70,319.01,27.94,0000 0000 0000 0000 000000
2013-08-17 01:38:22,0.03,0.66,0.00,26.04,30.15,31.89,5.92,28.63,1012.24,2038.00,3163.98,3156.61,3389.00,349.92,319.22,27.94,0000 0000 0000 0000 000000
2013-08-17 01:39:23,0.03,0.66,0.00,26.02,30.16,31.96,6.02,28.79,1012.28,2038.00,3163.95,3156.41,3389.00,349.74,319.09,27.95,0000 0000 0000 0000 000000
2013-08-17 01:40:23,0.05,0.66,0.00,26.03,30.17,31.86,5.91,29.08,1012.23,2038.00,3163.84,3156.19,3389.00,349.87,319.15,27.96,0000 0000 0000 0000 000000
2013-08-17 01:41:23,0.07,0.66,0.00,26.07,30.17,31.80,5.84,29.00,1012.25,2037.99,3163.48,3156.08,3388.98,349.79,319.07,27.96,0000 0000 0000 0000 000000
2013-08-17 01:42:23,0.06,0.66,0.00,26.06,30.17,31.86,5.92,29.17,1012.23,2037.99,3163.27,3156.03,3388.97,350.44,319.64,27.97,0000 0000 0000 0000 000000
2013-08-17 01:43:24,0.02,0.67,0.00,26.05,30.17,31.93,5.80,29.13,1012.23,2037.99,3163.16,3156.01,3388.96,349.76,319.45,27.97,0000 0000 0000 0000 000000
2013-08-17 01:44:24,0.02,0.67,0.00,26.05,30.17,31.89,5.87,29.00,1012.24,2037.99,3163.13,3156.00,3388.91,350.52,319.77,27.98,0000 0000 0000 0000 000000
2013-08-17 01:45:24,0.00,0.67,0.00,26.08,30.17,31.95,5.92,29.04,1012.22,2037.99,3163.13,3156.00,3388.86,350.16,319.40,27.98,0000 0000 0000 0000 000000
2013-08-17 01:46:25,0.00,0.67,0.00,26.12,30.17,31.98,5.93,28.83,1012.23,2037.99,3163.08,3156.00,3388.72,350.69,319.96,27.99,0000 0000 0000 0000 000000
2013-08-17 01:47:25,0.04,0.67,0.00,26.12,30.17,32.00,5.98,28.75,1012.23,2037.99,3163.03,3156.00,3388.51,349.71,318.94,28.00,0000 0000 0000 0000 000000
2013-08-17 01:48:25,0.02,0.67,0.00,26.09,30.17,32.02,6.13,28.83,1012.25,2037.98,3163.00,3156.00,3388.24,350.64,319.83,28.00,0000 0000 0000 0000 000000
2013-08-17 01:49:26,0.02,0.67,0.00,26.10,30.17,32.12,5.94,28.75,1012.24,2037.98,3163.00,3156.00,3388.11,350.48,319.69,28.01,0000 0000 0000 0000 000000
2013-08-17 01:50:26,0.01,0.67,0.00,26.12,30.17,32.10,5.88,28.92,1012.24,2037.99,3162.99,3156.00,3388.05,350.65,319.80,28.01,0000 0000 0000 0000 000000
2013-08-17 01:51:26,0.00,0.67,0.00,26.10,30.17,32.00,5.89,28.75,1012.26,2037.99,3162.97,3155.99,3388.04,349.55,319.31,28.02,0000 0000 0000 0000 000000
2013-08-17 01:52:26,0.01,0.67,0.00,26.09,30.17,31.95,6.03,28.96,1012.26,2037.99,3162.98,3155.99,3388.02,350.53,319.72,28.03,0000 0000 0000 0000 000000
2013-08-17 01:53:27,0.00,0.67,0.00,26.09,30.17,32.04,5.79,28.83,1012.29,2037.99,3162.99,3155.96,3388.00,349.89,319.33,28.03,0000 0000 0000 0000 000000
2013-08-17 01:54:27,0.00,0.67,0.00,26.06,30.17,32.01,5.72,28.75,1012.26,2037.99,3162.95,3155.95,3388.00,349.16,318.88,28.04,0000 0000 0000 0000 000000
2013-08-17 01:55:27,0.01,0.67,0.00,26.03,30.17,31.93,5.92,28.75,1012.24,2037.98,3162.93,3155.89,3388.00,350.05,319.30,28.04,0000 0000 0000 0000 000000
2013-08-17 01:56:27,0.01,0.67,0.00,26.01,30.17,31.98,5.86,28.79,1012.24,2037.99,3162.84,3155.87,3388.00,349.76,319.43,28.05,0000 0000 0000 0000 000000
2013-08-17 01:57:28,0.02,0.67,0.00,26.09,30.17,32.02,5.91,28.83,1012.24,2037.99,3162.56,3155.82,3388.00,349.82,319.23,28.05,0000 0000 0000 0000 000000
2013-08-17 01:58:28,0.05,0.67,0.00,26.13,30.17,31.91,5.80,28.67,1012.24,2037.99,3162.28,3155.54,3388.00,348.99,318.25,28.06,0000 0000 0000 0000 000000
2013-08-17 01:59:28,0.10,0.67,0.00,26.11,30.17,31.93,5.90,28.79,1012.30,2037.99,3162.13,3155.32,3388.00,349.55,318.83,28.07,0000 0000 0000 0000 000000
2013-08-17 02:00:28,0.07,0.67,0.00,26.08,30.17,31.94,5.79,28.67,1012.36,2037.99,3162.05,3155.18,3387.98,349.33,318.67,28.07,0000 0000 0000 0000 000000
2013-08-17 02:01:29,0.03,0.67,0.00,26.12,30.17,32.01,5.99,28.79,1012.42,2037.99,3162.01,3155.14,3387.97,350.22,319.29,28.08,0000 0000 0000 0000 000000
2013-08-17 02:02:29,0.01,0.67,0.00,26.12,30.18,32.02,6.00,28.79,1012.47,2037.99,3162.00,3155.08,3387.95,350.25,319.24,28.08,0000 0000 0000 0000 000000
2013-08-17 02:03:29,0.00,0.67,0.00,26.13,30.19,32.05,5.87,28.42,1012.48,2037.98,3162.00,3155.03,3387.90,349.40,318.73,28.09,0000 0000 0000 0000 000000
2013-08-17 02:04:29,0.01,0.67,0.00,26.15,30.19,32.04,5.90,28.79,1012.48,2037.99,3162.00,3155.06,3387.87,349.87,319.13,28.10,0000 0000 0000 0000 000000
2013-08-17 02:05:30,0.01,0.67,0.00,26.14,30.19,32.06,5.73,28.54,1012.61,2037.98,3162.00,3155.05,3387.85,348.88,318.28,28.10,0000 0000 0000 0000 000000
2013-08-17 02:06:30,0.00,0.67,0.00,26.13,30.19,32.01,6.02,28.67,1012.56,2037.99,3161.99,3155.02,3387.80,350.09,319.38,28.11,0000 0000 0000 0000 000000
2013-08-17 02:07:30,0.01,0.67,0.00,26.12,30.20,32.05,5.79,28.75,1012.56,2037.99,3161.98,3155.00,3387.73,349.63,318.97,28.11,0000 0000 0000 0000 000000
2013-08-17 02:08:30,0.01,0.67,0.00,26.08,30.20,32.10,5.94,28.92,1012.55,2037.99,3161.95,3155.01,3387.64,350.15,319.82,28.12,0000 0000 0000 0000 000000
2013-08-17 02:09:31,0.03,0.67,0.00,26.10,30.20,31.97,5.78,28.71,1012.44,2037.99,3161.91,3155.00,3387.35,350.27,319.51,28.13,0000 0000 0000 0000 000000
2013-08-17 02:10:31,0.04,0.67,0.00,26.15,30.20,31.96,5.70,28.63,1012.40,2037.99,3161.71,3155.00,3387.18,349.40,318.68,28.13,0000 0000 0000 0000 000000
2013-08-17 02:11:31,0.03,0.67,0.00,26.13,30.20,31.95,5.65,28.50,1012.35,2037.99,3161.66,3155.00,3387.12,348.63,318.39,28.14,0000 0000 0000 0000 000000
2013-08-17 02:12:32,0.02,0.67,0.00,26.17,30.20,32.00,6.11,28.67,1012.36,2037.99,3161.38,3155.00,3387.05,350.32,319.48,28.14,0000 0000 0000 0000 000000
2013-08-17 02:13:32,0.03,0.67,0.00,26.18,30.20,32.02,5.88,28.67,1012.33,2037.99,3161.19,3155.00,3387.02,350.23,319.10,28.15,0000 0000 0000 0000 000000
2013-08-17 02:14:32,0.02,0.67,0.00,26.19,30.20,31.98,6.02,28.63,1012.26,2037.99,3161.09,3155.00,3387.00,350.44,319.91,28.15,0000 0000 0000 0000 000000
2013-08-17 02:15:32,0.01,0.67,0.00,26.17,30.20,32.02,5.93,28.79,1012.25,2037.99,3161.04,3154.99,3387.00,350.15,319.29,28.16,0000 0000 0000 0000 000000
2013-08-17 02:16:32,0.00,0.67,0.00,26.12,30.20,32.07,5.93,28.71,1012.26,2037.99,3161.03,3154.98,3387.00,349.84,319.06,28.17,0000 0000 0000 0000 000000
2013-08-17 02:17:33,0.00,0.67,0.00,26.10,30.20,32.11,5.88,28.75,1012.26,2037.99,3161.01,3154.99,3387.00,349.96,319.20,28.17,0000 0000 0000 0000 000000
2013-08-17 02:18:33,0.00,0.67,0.00,26.13,30.20,31.99,5.83,28.83,1012.25,2037.99,3161.02,3154.94,3387.00,349.88,318.76,28.18,0000 0000 0000 0000 000000
2013-08-17 02:19:33,0.01,0.67,0.00,26.13,30.20,31.94,5.93,28.71,1012.26,2037.99,3161.00,3154.94,3387.00,350.22,319.40,28.18,0000 0000 0000 0000 000000
2013-08-17 02:20:33,0.00,0.67,0.00,26.14,30.20,32.03,5.91,28.83,1012.27,2037.99,3161.00,3154.88,3387.00,350.24,319.42,28.19,0000 0000 0000 0000 000000
2013-08-17 02:21:34,0.02,0.67,0.00,26.15,30.20,32.13,5.93,28.92,1012.24,2037.99,3161.00,3154.74,3387.00,350.08,319.17,28.20,0000 0000 0000 0000 000000
2013-08-17 02:22:34,0.03,0.67,0.00,26.17,30.20,32.07,5.72,28.75,1012.23,2037.99,3160.97,3154.52,3386.98,350.29,319.55,28.20,0000 0000 0000 0000 000000
2013-08-17 02:23:34,0.06,0.67,0.00,26.17,30.20,32.05,5.73,28.67,1012.22,2037.99,3160.84,3154.30,3386.95,349.75,318.70,28.21,0000 0000 0000 0000 000000
2013-08-17 02:24:34,0.08,0.67,0.00,26.17,30.21,32.09,5.95,28.79,1012.23,2037.99,3160.58,3154.14,3386.86,350.82,319.89,28.21,0000 0000 0000 0000 000000
2013-08-17 02:25:35,0.08,0.67,0.00,26.23,30.21,32.13,5.95,28.25,1012.25,2037.99,3160.31,3154.07,3386.63,351.05,320.15,28.22,0000 0000 0000 0000 000000
2013-08-17 02:26:35,0.07,0.67,0.00,26.23,30.21,32.05,5.99,28.75,1012.25,2037.99,3160.14,3154.03,3386.35,350.72,319.74,28.23,0000 0000 0000 0000 000000
2013-08-17 02:27:35,0.06,0.67,0.00,26.19,30.22,32.03,5.78,28.67,1012.24,2037.99,3160.05,3154.01,3386.13,350.10,319.23,28.23,0000 0000 0000 0000 000000
2013-08-17 02:28:35,0.03,0.67,0.00,26.16,30.22,32.08,5.95,28.75,1012.25,2037.99,3160.02,3154.00,3386.05,350.45,319.58,28.24,0000 0000 0000 0000 000000
2013-08-17 02:29:35,0.01,0.67,0.00,26.17,30.22,31.97,5.98,28.75,1012.24,2037.99,3160.00,3154.00,3386.02,351.09,320.16,28.24,0000 0000 0000 0000 000000
2013-08-17 02:30:36,0.01,0.67,0.00,26.18,30.22,32.02,5.75,28.71,1012.25,2037.99,3160.00,3153.98,3386.00,349.36,318.57,28.25,0000 0000 0000 0000 000000
2013-08-17 02:31:36,0.00,0.67,0.00,26.16,30.22,32.05,5.87,28.71,1012.26,2037.99,3159.95,3153.98,3386.00,349.22,318.73,28.25,0000 0000 0000 0000 000000
2013-08-17 02:32:36,0.01,0.67,0.00,26.19,30.22,32.12,5.77,28.75,1012.27,2037.99,3159.96,3153.97,3386.00,350.41,319.17,28.26,0000 0000 0000 0000 000000
2013-08-17 02:33:36,0.00,0.67,0.00,26.22,30.22,32.10,5.95,28.67,1012.30,2037.99,3159.80,3153.91,3386.00,349.87,319.44,28.27,0000 0000 0000 0000 000000
2013-08-17 02:34:36,0.04,0.67,0.00,26.20,30.22,32.12,6.01,28.67,1012.34,2037.98,3159.55,3153.72,3385.97,350.40,319.91,28.27,0000 0000 0000 0000 000000
2013-08-17 02:35:36,0.08,0.67,0.00,26.20,30.22,32.14,5.73,28.58,1012.38,2037.98,3159.30,3153.52,3385.85,349.38,318.60,28.28,0000 0000 0000 0000 000000
2013-08-17 02:36:37,0.11,0.67,0.00,26.20,30.22,32.09,6.02,28.75,1012.39,2037.99,3159.12,3153.27,3385.55,350.39,319.51,28.28,0000 0000 0000 0000 000000